Date,TemperatureHighF,TemperatureAvgF,TemperatureLowF,DewpointHighF,DewpointAvgF,DewpointLowF,HumidityHigh,HumidityAvg,HumidityLow,PressureMaxIn,PressureMinIn,WindSpeedMaxMPH,WindSpeedAvgMPH,GustSpeedMaxMPH,PrecipitationSumIn
2013-8-1,78,68,61,67,62,57,95,82,61,29.98,29.79,17,2,20,0.01
2013-8-2,82,70,63,66,60,52,98,74,37,29.81,29.75,9,1,15,0.01
2013-8-3,78,68,61,62,57,52,97,69,44,29.83,29.75,18,2,18,0.01
2013-8-4,75,65,59,60,56,49,92,72,45,29.93,29.80,25,2,25,0.01
2013-8-5,75,64,53,53,47,34,81,56,27,30.03,29.93,20,2,20,0.00
2013-8-6,76,64,51,55,51,48,90,67,40,30.11,30.03,12,0,12,0.00
2013-8-7,79,69,57,62,58,53,89,70,49,30.11,29.96,21,3,22,0.00
2013-8-8,83,73,68,71,66,60,96,78,59,29.97,29.91,24,4,24,0.03
2013-8-9,80,73,67,74,71,65,98,93,71,29.92,29.74,21,0,21,0.02
2013-8-10,79,70,60,70,56,46,98,64,32,30.02,29.77,17,2,17,0.01
2013-8-11,79,67,55,61,55,51,89,67,41,30.07,29.95,11,0,11,0.01
2013-8-12,80,68,57,64,58,54,92,72,47,30.00,29.86,7,0,10,0.01
2013-8-13,73,66,62,65,62,58,99,89,70,29.87,29.65,17,2,17,0.00
2013-8-14,70,61,54,63,54,50,99,79,58,29.96,29.67,16,2,18,0.00
2013-8-15,76,63,51,55,51,47,92,68,39,30.07,29.96,12,1,12,0.00
2013-8-16,79,65,52,63,55,48,93,71,45,30.19,30.07,10,0,10,0.00
2013-8-17,79,66,56,63,58,55,98,79,48,30.29,30.19,15,1,15,0.00
2013-8-18,78,66,55,63,58,54,97,79,54,30.26,30.06,9,0,9,0.00
2013-8-19,88,70,58,68,60,57,96,73,41,30.06,29.93,10,0,10,0.00
2013-8-20,86,72,60,68,62,58,95,73,44,30.07,29.98,10,0,10,0.00
2013-8-21,88,74,62,69,63,59,92,71,39,30.12,29.96,14,1,14,0.00
2013-8-22,86,73,67,70,65,61,97,78,51,29.98,29.78,19,2,19,0.00
2013-8-23,74,66,54,64,55,50,90,71,46,30.18,29.87,23,2,23,0.00
2013-8-24,82,63,48,57,52,40,98,72,24,30.33,30.18,12,0,12,0.00
2013-8-25,80,65,51,65,55,45,95,72,37,30.37,30.10,11,1,11,0.14
2013-8-26,74,69,64,69,64,60,98,86,75,30.11,29.85,13,2,13,0.59
2013-8-27,86,74,68,72,69,66,99,86,52,29.90,29.84,5,0,12,0.59
2013-8-28,87,74,66,72,69,65,99,85,56,29.92,29.83,11,0,11,0.00
2013-8-29,82,72,66,70,66,62,98,84,52,30.04,29.92,10,0,10,0.00
2013-8-30,85,74,65,70,67,64,98,80,58,29.98,29.74,14,1,14,0.00
2013-8-31,76,72,69,73,69,67,98,92,81,29.78,29.72,9,1,10,0.74